Flag for Kazakhstan Weather past 2 weeks in Aqtobe, Kazakhstan

Now
16 °F

Clear.


Feels Like: 7 °F
Forecast: 16 / 33 °F
Wind: 6 mph from Northeast

Location: Aktjubinsk

Current Time: Apr 2, 2015 at 8:32:13 AM

Latest Report: Apr 2, 2015 at 7:30 AM


Visibility: 4 mi

Pressure: 30.30 "Hg

Humidity: 86%

Dew point: 12 °F

Location of AqtobeLocation

Historic Weather in Aqtobe — Graph

°F

Aqtobe temperature yesterday

Maximum temperature yesterday: 34 °F (at 4:00 PM)
Minimum temperature yesterday: 12 °F (at 6:00 AM)
Average temperature yesterday: 23 °F

Past Weeks' High & Low Weather Summary

 TemperatureHumidityPressure
High37 °F (Mar 23, 12:30 PM)100% (Mar 18, 10:00 PM)30.89 "Hg (Mar 18, 10:00 PM)
Low0 °F (Mar 30, 6:30 AM)38% (Mar 31, 3:30 PM)29.56 "Hg (Mar 22, 4:00 AM)
Average24 °F82%30.29 "Hg
* Reported Mar 18 7:00 AM — Apr 2 7:00 AM, Aqtobe, Weather by CustomWeather, © 2015

Note: Actual official high and low records may vary slightly from our data, if they occured in-between our weather recording intervals... More about our weather records

Advertising

Aqtobe weather history for previous 24 hours

 ConditionsComfort  
Time TempWeatherWind HumidityBarometerVisibility
7:00 AM
Thu, Apr 2
16 °FSunny.6 mph79%30.27 "Hg10 mi
6:30 AM14 °FClear.3 mph85%30.27 "Hg10 mi
6:00 AM14 °FClear.8 mph92%30.27 "Hg10 mi
5:30 AM14 °FPassing clouds.6 mph85%30.27 "HgN/A
5:00 AM14 °FClear.8 mph85%30.27 "Hg10 mi
4:30 AM16 °FClear.8 mph86%30.27 "Hg10 mi
4:00 AM18 °FClear.6 mph86%30.27 "Hg10 mi
3:30 AM16 °FClear.8 mph93%30.27 "Hg10 mi
3:00 AM18 °FClear.10 mph86%30.27 "Hg10 mi
2:30 AM18 °FClear.10 mph93%30.27 "Hg10 mi
2:00 AM19 °FClear.13 mph86%30.27 "Hg10 mi
1:30 AM21 °FClear.13 mph86%30.27 "Hg10 mi
1:00 AM21 °FClear.17 mph86%30.27 "Hg10 mi
12:30 AM21 °FClear.10 mph86%30.27 "Hg10 mi
12:00 AM21 °FClear.6 mph86%30.27 "Hg10 mi
11:30 PM
Wed, Apr 1
23 °FClear.10 mph80%30.27 "Hg10 mi
11:00 PM23 °FClear.15 mph80%30.27 "Hg10 mi
10:30 PM25 °FClear.17 mph74%30.27 "Hg10 mi
10:00 PM25 °FClear.10 mph80%30.27 "Hg10 mi
9:30 PM27 °FClear.8 mph74%30.27 "Hg10 mi
9:00 PM27 °FClear.8 mph74%30.27 "Hg10 mi
8:30 PM28 °FClear.10 mph74%30.27 "Hg10 mi
8:00 PM28 °FClear.8 mph74%30.27 "Hg10 mi
7:30 PM30 °FSunny.13 mph69%30.24 "Hg10 mi
7:00 PM30 °FSunny.13 mph69%30.24 "Hg10 mi
6:30 PM30 °FSunny.17 mph64%30.24 "Hg10 mi
6:00 PM32 °FSunny.13 mph60%30.24 "Hg10 mi
5:30 PM32 °FSunny.13 mph60%30.24 "Hg10 mi
5:00 PM34 °FSunny.13 mph56%30.24 "Hg10 mi
4:30 PM34 °FPassing clouds.15 mph51%30.24 "HgN/A
4:00 PM34 °FSunny.13 mph56%30.24 "Hg10 mi
3:30 PM32 °FSunny.13 mph55%30.24 "Hg10 mi
3:00 PM32 °FSunny.15 mph51%30.24 "Hg10 mi
2:30 PM32 °FSunny.13 mph51%30.24 "Hg10 mi
2:00 PM32 °FSunny.13 mph47%30.24 "Hg10 mi
1:30 PM30 °FSunny.13 mph55%30.24 "Hg10 mi
1:00 PM30 °FSunny.13 mph55%30.24 "Hg10 mi
12:30 PM28 °FSunny.13 mph59%30.24 "Hg10 mi
12:00 PM27 °FSunny.10 mph59%30.27 "Hg10 mi
11:30 AM27 °FSunny.10 mph64%30.27 "Hg10 mi
11:00 AM23 °FSunny.10 mph74%30.27 "Hg10 mi
10:30 AM23 °FClear.10 mph74%30.27 "Hg4 mi
10:00 AM21 °FClear.8 mph74%30.27 "Hg3 mi
9:30 AM19 °FClear.6 mph73%30.27 "Hg3 mi
9:00 AM16 °FClear.8 mph79%30.30 "Hg3 mi
8:30 AM14 °FClear.6 mph79%30.30 "Hg3 mi
8:00 AM14 °FClear.6 mph73%30.30 "Hg3 mi
Weather by CustomWeather, © 2015

See weather overviewHow to use our weather pages